Powrót do katalogu

DELTA 1 DEB

AktywnyLEO
NORAD 14510·DEBRIS·🇺🇸 United States

Wystrzelony Jul 29, 1976 z Vandenberg Space Force Base

Loading…

Następne Przeloty (najbliższe 24 godziny)

TLE

ŚwieżeSource: Space-Track

Epoka: Sep 14, 2026, 07:14 UTC

1 14510U 76077ER  26257.30179091  .00000142  00000-0  21194-2 0  9996
2 14510 102.4326 179.7981 0222575  62.1473  87.0243 11.99461097938437

Śledź DELTA 1 DEB w czasie rzeczywistym z AllMySat

Download on the App Store